Weather History for KARA - April, 2013

Change the Weather History Date:

Wednesday, April 24, 2013

  Actual Average Record
Temperature  
Mean Temperature 67 °F 70 °F  
Max Temperature 74 °F 81 °F 89 °F (1999)
Min Temperature 59 °F 59 °F 47 °F (1998)
Degree Days  
Heating Degree Days 0 0  
Month to date heating degree days 40 43  
Since 1 July heating degree days 1129 1407  
Cooling Degree Days 2 6  
Month to date cooling degree days 106 97  
Year to date cooling degree days 197 180  
Growing Degree Days 16 (Base 50)    
Moisture  
Dew Point 61 °F    
Average Humidity 81    
Maximum Humidity 90    
Minimum Humidity 72    
Precipitation  
Precipitation 1.22 in 0.09 in 2.35 in (1953)
Month to date precipitation 6.51 3.44  
Year to date precipitation 25.99 16.62  
Sea Level Pressure  
Sea Level Pressure 30.08 in    
Wind  
Wind Speed 13 mph (NNE)    
Max Wind Speed 25 mph    
Max Gust Speed 33 mph    
Visibility 8 miles    
Events Rain , Thunderstorm    
T = Trace of Precipitation, MM = Missing Value Source: NWS Daily Summary

Daily Weather History Graph

Daily Weather History Graph

Search for Another Location

Airport or City:

Trip Planner

Search our weather history database for the weather conditions in past years. The results will help you decide how hot, cold, wet, or windy it might be!

Date:

Astronomy

Apr. 24, 2013 Rise Set
Actual Time 6:30 AM CDT 7:40 PM CDT
Civil Twilight 6:05 AM CDT 8:05 PM CDT
Nautical Twilight 5:36 AM CDT 8:35 PM CDT
Astronomical Twilight 5:05 AM CDT 9:06 PM CDT
Moon 6:46 PM CDT (4/24) 5:29 AM CDT (4/24)
Length of Visible Light 13h 59m
Length of Day
13h 09m
Waxing Gibbous, 98% of the Moon is Illuminated
Apr 24
Waxing Gibbous
Apr 25
Full
May 2
Last Quarter
May 9
New
May 17
First Quarter

Hourly Weather History & Observations

Time (CDT) Temp. Dew Point Humidity Pressure Visibility Wind Dir Wind Speed Gust Speed Precip Events Conditions
12:34 AM 71.6 °F 68.0 °F 88% 30.02 in 8.0 mi SE 5.8 mph - N/A   Mostly Cloudy
12:53 AM 72.0 °F 68.0 °F 87% 30.02 in 8.0 mi SE 5.8 mph - N/A   Overcast
1:05 AM 71.6 °F 68.0 °F 88% 30.02 in 8.0 mi SE 5.8 mph - N/A   Overcast
1:47 AM 71.6 °F 68.0 °F 88% 30.02 in 7.0 mi SSE 4.6 mph - N/A   Overcast
1:53 AM 72.0 °F 68.0 °F 87% 30.02 in 7.0 mi SSE 4.6 mph - N/A   Overcast
2:53 AM 72.0 °F 68.0 °F 87% 30.02 in 8.0 mi SSE 4.6 mph - N/A   Overcast
3:02 AM 71.6 °F 68.0 °F 88% 30.02 in 8.0 mi South 4.6 mph - N/A   Overcast
3:53 AM 72.0 °F 68.0 °F 87% 30.02 in 8.0 mi SSE 6.9 mph - N/A   Overcast
4:18 AM 71.6 °F 68.0 °F 88% 30.02 in 8.0 mi SSE 9.2 mph - N/A   Overcast
5:53 AM 72.0 °F 68.0 °F 87% 29.97 in 7.0 mi SSE 11.5 mph - N/A   Overcast
6:53 AM 73.0 °F 69.1 °F 87% 29.96 in 9.0 mi SSE 15.0 mph - N/A   Mostly Cloudy
7:19 AM 73.4 °F 69.8 °F 88% 29.98 in 8.0 mi South 17.3 mph - 0.00 in   Mostly Cloudy
7:30 AM 73.4 °F 69.8 °F 88% 29.97 in 8.0 mi SSE 15.0 mph - 0.00 in Rain , Thunderstorm Light Thunderstorms and Rain
7:53 AM 73.9 °F 69.1 °F 85% 30.01 in 6.0 mi South 12.7 mph - 0.03 in Rain , Thunderstorm Thunderstorms and Rain
8:27 AM 71.6 °F 68.0 °F 88% 30.00 in 0.5 mi SW 9.2 mph 19.6 mph 0.40 in Rain , Thunderstorm Heavy Thunderstorms and Rain
8:49 AM 69.8 °F 66.2 °F 88% 30.03 in 1.5 mi West 12.7 mph 24.2 mph 1.05 in Rain , Thunderstorm Heavy Thunderstorms and Rain
8:50 AM 69.8 °F 66.2 °F 88% 30.03 in 1.8 mi West 13.8 mph 20.7 mph 1.05 in Rain , Thunderstorm Heavy Thunderstorms and Rain
8:53 AM 69.1 °F 64.9 °F 87% 30.03 in 3.0 mi West 13.8 mph 20.7 mph 1.05 in Rain , Thunderstorm Thunderstorms and Rain
9:13 AM 66.2 °F 62.6 °F 88% 30.04 in 10.0 mi NW 24.2 mph 29.9 mph 0.00 in Rain , Thunderstorm Light Thunderstorms and Rain
9:30 AM 62.6 °F 59.0 °F 88% 30.05 in 7.0 mi NNW 23.0 mph 33.4 mph 0.00 in Rain Light Rain
9:53 AM 62.1 °F 57.9 °F 86% 30.08 in 10.0 mi North 16.1 mph 25.3 mph 0.01 in Rain Light Rain
10:39 AM 62.6 °F 57.2 °F 82% 30.11 in 10.0 mi North 15.0 mph - 0.05 in Rain Light Rain
10:53 AM 61.0 °F 57.0 °F 87% 30.12 in 10.0 mi North 15.0 mph - 0.05 in Rain Light Rain
11:18 AM 60.8 °F 57.2 °F 88% 30.13 in 3.0 mi North 15.0 mph - 0.07 in Rain Heavy Rain
11:48 AM 62.6 °F 57.2 °F 82% 30.14 in 10.0 mi North 16.1 mph 24.2 mph 0.07 in   Overcast
11:53 AM 62.1 °F 57.0 °F 84% 30.14 in 10.0 mi North 15.0 mph 23.0 mph 0.07 in   Overcast
12:13 PM 62.6 °F 57.2 °F 82% 30.12 in 10.0 mi North 18.4 mph 24.2 mph 0.01 in   Overcast
12:41 PM 64.4 °F 57.2 °F 77% 30.13 in 10.0 mi North 13.8 mph 21.9 mph 0.01 in   Overcast
12:53 PM 64.9 °F 57.9 °F 78% 30.12 in 10.0 mi North 16.1 mph - 0.01 in   Overcast
1:53 PM 64.0 °F 57.0 °F 78% 30.13 in 10.0 mi North 15.0 mph 23.0 mph N/A   Overcast
2:53 PM 64.9 °F 57.0 °F 75% 30.13 in 10.0 mi North 15.0 mph - N/A   Overcast
3:53 PM 64.0 °F 55.9 °F 75% 30.11 in 10.0 mi North 16.1 mph - N/A   Overcast
4:53 PM 64.0 °F 55.0 °F 73% 30.11 in 10.0 mi North 17.3 mph - N/A   Overcast
5:53 PM 62.1 °F 54.0 °F 75% 30.12 in 10.0 mi NNE 15.0 mph - N/A   Overcast
6:53 PM 62.1 °F 54.0 °F 75% 30.14 in 10.0 mi NE 11.5 mph - N/A   Overcast
7:53 PM 62.1 °F 54.0 °F 75% 30.15 in 10.0 mi NNE 11.5 mph - N/A   Overcast
8:26 PM 62.6 °F 53.6 °F 72% 30.17 in 10.0 mi North 8.1 mph - N/A   Overcast
8:53 PM 62.1 °F 54.0 °F 75% 30.18 in 10.0 mi North 9.2 mph - N/A   Overcast
9:53 PM 62.1 °F 53.1 °F 72% 30.18 in 10.0 mi North 11.5 mph - N/A   Overcast
10:53 PM 61.0 °F 52.0 °F 72% 30.20 in 10.0 mi North 13.8 mph 20.7 mph N/A   Overcast
11:53 PM 60.1 °F 51.1 °F 72% 30.21 in 10.0 mi North 15.0 mph - N/A   Overcast